Weather History for Fort Polk, LA

Change the Weather History Date:

Monday, November 5, 2012

  Actual Average (KPOE) Record (KPOE)
Temperature  
Mean Temperature 66 °F -  
Max Temperature 78 °F 69 °F 82 °F (2003)
Min Temperature 51 °F 49 °F 39 °F (2010)
Growing Degree Days 16 (Base 50)    
Moisture  
Dew Point 57 °F    
Average Humidity 82    
Maximum Humidity 100    
Minimum Humidity 43    
Precipitation  
Precipitation 0.00 in - - ()
Sea Level Pressure  
Sea Level Pressure 30.05 in    
Wind  
Wind Speed 1 mph (ESE)    
Max Wind Speed 5 mph    
Max Gust Speed -    
Visibility 6 miles    
Events Fog    
Averages and records for this station are not official NWS values.
T = Trace of Precipitation, MM = Missing Value Source: NWS Daily Summary

Daily Weather History Graph

Daily Weather History Graph

Search for Another Location

Airport:

Trip Planner

Search our weather history database for the weather conditions in past years. The results will help you decide how hot, cold, wet, or windy it might be!

Date:

Astronomy

Nov. 05, 2012 Rise Set
Actual Time 6:30 AM CST 5:19 PM CST
Civil Twilight 6:05 AM CST 5:44 PM CST
Nautical Twilight 5:36 AM CST 6:13 PM CST
Astronomical Twilight 5:08 AM CST 6:41 PM CST
Moon 10:56 PM CST (11/5) 11:49 AM CST (11/5)
Length of Visible Light 11h 39m
Length of Day
10h 49m
Waning Gibbous, 62% of the Moon is Illuminated
Nov 5
Waning Gibbous
Nov 6
Last Quarter
Nov 13
New
Nov 20
First Quarter
Nov 28
Full

Hourly Weather History & Observations

Time (CST) Temp. Dew Point Humidity Pressure Visibility Wind Dir Wind Speed Gust Speed Precip Events Conditions
12:54 AM 57.0 °F 55.0 °F 93% 30.14 in 7.0 mi Calm Calm - N/A   Clear
1:54 AM 57.0 °F 54.0 °F 89% 30.13 in 10.0 mi Calm Calm - N/A   Mostly Cloudy
2:19 AM 57.2 °F 55.4 °F 94% 30.04 in 10.0 mi Calm Calm - N/A   Overcast
2:54 AM 57.9 °F 54.0 °F 87% 30.12 in 10.0 mi Calm Calm - N/A   Overcast
3:18 AM 57.2 °F 55.4 °F 94% 30.04 in 2.5 mi ESE 3.5 mph - N/A   Overcast
3:31 AM 57.2 °F 55.4 °F 94% 30.04 in 1.8 mi East 3.5 mph - N/A   Overcast
3:54 AM 57.0 °F 55.9 °F 96% 30.12 in 0.8 mi Calm Calm - N/A   Mist
4:06 AM 57.2 °F 55.4 °F 94% 30.03 in 1.0 mi Calm Calm - N/A   Mist
4:42 AM 57.2 °F 57.2 °F 100% 30.03 in 0.8 mi Calm Calm - N/A   Mist
4:54 AM 57.9 °F 57.0 °F 97% 30.12 in 1.0 mi Calm Calm - N/A   Mist
5:01 AM 57.2 °F 55.4 °F 94% 30.03 in 0.8 mi Calm Calm - N/A   Mist
5:54 AM 59.0 °F 57.0 °F 93% 30.12 in 0.8 mi Calm Calm - N/A   Mist
6:31 AM 59.0 °F 57.2 °F 94% 30.02 in 1.0 mi Calm Calm - N/A   Mist
6:49 AM 60.8 °F 57.2 °F 88% 30.02 in 0.5 mi Calm Calm - N/A Fog Fog
6:54 AM 60.1 °F 57.9 °F 93% 30.11 in 0.5 mi Calm Calm - N/A Fog Fog
7:28 AM 60.8 °F 59.0 °F 94% 30.03 in 1.0 mi Variable 3.5 mph - N/A   Overcast
7:54 AM 61.0 °F 60.1 °F 97% 30.11 in 2.0 mi SSE 3.5 mph - N/A   Overcast
8:27 AM 62.6 °F 60.8 °F 94% 30.03 in 1.8 mi Calm Calm - N/A   Overcast
8:54 AM 63.0 °F 62.1 °F 97% 30.11 in 1.5 mi Calm Calm - N/A   Overcast
9:54 AM 64.0 °F 63.0 °F 96% 30.11 in 3.0 mi Calm Calm - N/A   Overcast
10:39 AM 66.2 °F 62.6 °F 88% 30.02 in 8.0 mi Variable 3.5 mph - N/A   Overcast
10:54 AM 68.0 °F 64.0 °F 87% 30.09 in 9.0 mi Variable 3.5 mph - N/A   Overcast
11:28 AM 69.8 °F 64.4 °F 83% 30.00 in 10.0 mi Variable 4.6 mph - N/A   Overcast
11:54 AM 71.1 °F 64.0 °F 78% 30.06 in 10.0 mi Variable 4.6 mph - N/A   Overcast
12:10 PM 73.4 °F 64.4 °F 73% 29.97 in 10.0 mi Variable 4.6 mph - N/A   Overcast
12:38 PM 75.2 °F 64.4 °F 69% 29.95 in 10.0 mi Variable 4.6 mph - N/A   Scattered Clouds
12:54 PM 75.9 °F 62.1 °F 62% 30.02 in 10.0 mi Variable 3.5 mph - N/A   Partly Cloudy
1:54 PM 78.1 °F 57.0 °F 48% 29.99 in 10.0 mi Variable 4.6 mph - N/A   Partly Cloudy
2:54 PM 78.1 °F 54.0 °F 43% 29.98 in 10.0 mi Variable 4.6 mph - N/A   Clear
3:54 PM 75.9 °F 52.0 °F 43% 29.99 in 10.0 mi Calm Calm - N/A   Scattered Clouds
4:54 PM 72.0 °F 50.0 °F 46% 29.99 in 10.0 mi Variable 3.5 mph - N/A   Clear
5:54 PM 66.0 °F 51.1 °F 59% 30.01 in 10.0 mi Calm Calm - N/A   Clear
6:54 PM 62.1 °F 54.0 °F 75% 30.04 in 10.0 mi Calm Calm - N/A   Clear
7:54 PM 60.1 °F 54.0 °F 80% 30.06 in 10.0 mi Calm Calm - N/A   Clear
8:54 PM 63.0 °F 48.9 °F 60% 30.07 in 10.0 mi Calm Calm - N/A   Clear
9:54 PM 55.9 °F 48.9 °F 77% 30.07 in 10.0 mi Calm Calm - N/A   Clear
10:54 PM 53.1 °F 48.9 °F 86% 30.06 in 10.0 mi Calm Calm - N/A   Clear
11:54 PM 51.1 °F 48.0 °F 89% 30.05 in 9.0 mi Calm Calm - N/A   Clear